Tracking 30918 objects as of 2-Jul-2025
HD Live streaming from Space Station
objects crossing your sky now

THOR ABLESTAR DEB

Track THOR ABLESTAR DEB now!
10-day predictions


NORAD ID: 516
Int'l Code: 1961-015FT
Perigee: 863.4 km
Apogee: 990.2 km
Inclination: 66.0 °
Period: 103.4 minutes
Semi major axis: 7297 km
RCS: 0.1377 m2 (medium)
Launch date: June 29, 1961
Source: United States (US)
Launch site: AIR FORCE EASTERN TEST RANGE (AFETR)

Note: This is SATELLITE DEBRIS
Your satellite tracking list
FENGYUN 1C DEB
Track 1 satellite(s)




NASA's NSSDC Master Catalog

Two Line Element Set (TLE):
1 00516U 61015FT  25182.71013524  .00000113  00000-0  14749-3 0  9999
2 00516  65.9960 313.5989 0086818 324.3071  35.2216 13.92562364239585
Source of the keplerian elements: AFSPC